Back to catalog

SL-14 R/B

AlivePO
NORAD 22287·ROCKET BODY·🇷🇺 Russia

Launched Dec 25, 1992 from Plesetsk Cosmodrome

Loading…

Next Passes (next 24 hours)

TLE

FreshSource: Space-Track

Epoch: Sep 14, 2026, 12:20 UTC

1 22287U 92094B   26257.51432916  .00000268  00000-0  32003-4 0  9996
2 22287  82.5268 176.9870 0025346  77.7581 282.6469 14.80153727796453

Track SL-14 R/B in real time with AllMySat

Download on the App Store